465  
NZUS99 KSGF 221807  
HRRSGF  
 
HOURLY WEATHER  
NATIONAL WEATHER SERVICE SPRINGFIELD MO  
1200 PM CST WED NOV 22 2017  
   
.....SGF CWA...
 
 
 
CITY SKY/WX TMP DP RH WIND PRES REMARKS  
SPRINGFIELD SUNNY 39 19 44 N5 30.35F  
6HR MIN TEMP: 21; 6HR MAX TEMP: 40;  
 
JOPLIN SUNNY 40 21 46 N6 30.39F  
6HR MIN TEMP: 19; 6HR MAX TEMP: 40;  
 
WEST PLAINS SUNNY 42 16 34 NW6 30.34F  
6HR MIN TEMP: 24; 6HR MAX TEMP: 42;  
 
ROLLA SUNNY 37 17 44 CALM 30.36F  
6HR MIN TEMP: 16; 6HR MAX TEMP: 37;  
 
OSAGE BEACH SUNNY 37 16 42 W3 30.39F  
BRANSON SUNNY 37 16 41 NW3 30.37F  
   
.....SURROUNDING SGF CWA...
 
 
 
CITY SKY/WX TMP DP RH WIND PRES REMARKS  
CHANUTE SUNNY 37 16 42 VRB3 30.40F  
PARSONS SUNNY 39 18 42 CALM 30.42F  
COFFEYVILLE SUNNY 39 19 44 NW6 30.42F WCI 35  
EMPORIA SUNNY 37 14 38 S3 30.38F  
GROVE OK SUNNY 41 23 48 CALM 30.40F  
ROGERS AR SUNNY 40 20 44 NE6 30.37F  
SILOAM SPRINGS SUNNY 42 21 43 NW3 30.37F  
HARRISON AR SUNNY 41 20 43 N3 30.36F  
NEAR YELLVILLE SUNNY 41 19 41 NW6 30.37F  
   
.....KANSAS AND MISSOURI...
 
 
 
CITY SKY/WX TMP DP RH WIND PRES REMARKS  
KANSAS CTY INT MOSUNNY 36 16 44 S5 30.37F WCI 32  
DOWNTOWN KC SUNNY 36 14 40 SW6 30.40F WCI 31  
COLUMBIA SUNNY 36 16 44 N5 30.37F WCI 32  
SEDALIA SUNNY 36 17 46 CALM 30.40F  
ST JOSEPH SUNNY 35 16 45 S8 30.37F WCI 29  
ST LOUIS SUNNY 36 18 48 NW6 30.38F WCI 31  
SPIRIT OF STL SUNNY 36 19 50 VRB5 30.38F WCI 32  
KIRKSVILLE SUNNY 35 16 45 SW6 30.37F WCI 30  
WICHITA MOSUNNY 38 16 40 VRB3 30.39F  
TOPEKA SUNNY 37 14 38 SW6 30.37F WCI 32  
OLATHE SUNNY 34 16 47 VRB3 30.39F  
   
.....TENNESSEE...
 
 
 
CITY SKY/WX TMP DP RH WIND PRES REMARKS  
MEMPHIS MOSUNNY 45 25 45 N7 30.31F  
NASHVILLE MOSUNNY 46 25 43 NE9 30.27F  
   
.....ARKANSAS....
 
 
 
CITY SKY/WX TMP DP RH WIND PRES REMARKS  
FAYETTEVILLE SUNNY 43 23 45 NW9 30.36F  
FT SMITH SUNNY 47 23 38 VRB6 30.38F  
LITTLE ROCK SUNNY 46 21 37 NE9 30.35F  
   
.....OKLAHOMA....
 
 
 
CITY SKY/WX TMP DP RH WIND PRES REMARKS  
TULSA MOSUNNY 41 19 41 N6 30.42F  
PONCA CITY SUNNY 38 15 39 W7 30.41F WCI 33  
MCALESTER MOSUNNY 46 22 38 N9 30.38F  
OKLAHOMA CITY PTSUNNY 39 17 41 NW9 30.41F WCI 33  
   
.....IOWA.........
 
 
 
CITY SKY/WX TMP DP RH WIND PRES REMARKS  
DES MOINES MOSUNNY 32 13 45 S8 30.33F WCI 25  
QUAD CITIES SUNNY 33 15 47 SW9 30.35F WCI 25  
   
.....ILLINOIS.....
 
 
 
CITY SKY/WX TMP DP RH WIND PRES REMARKS  
QUINCY SUNNY 32 16 51 S7 30.37F WCI 26  
CHICAGO MOSUNNY 32 14 47 W8 30.33F WCI 25  
 
CLICK HERE TO GO TO PREVIOUS BULLETINS.

The Nexlab MO Page
The Nexlab KS Page Main Text Page